DW1824 Weather Reports


time (UTC)temp
F
wind
direction
speed
knots
gust
knots
rain 1hr
in
rain 24hr
in
rain mn
in
humidity
%
barometer
mb
20260503222325 78 138 2.6 6.1 0.00 0.00 0.00 41 1018.7
20260503221333 78 123 1.7 3.5 0.00 0.00 0.00 43 1018.6
20260503220337 78 152 2.6 6.1 0.00 0.00 0.00 41 1019.0
20260503215325 79 154 1.7 4.3 0.00 0.00 0.00 45 1019.1
20260503214334 78 151 2.6 6.1 0.00 0.00 0.00 42 1019.0
20260503213336 78 142 1.7 4.3 0.00 0.00 0.00 44 1019.2
20260503212324 78 143 1.7 6.1 0.00 0.00 0.00 45 1019.3
20260503211355 78 140 0.9 8.7 0.00 0.00 0.00 42 1019.6
20260503210339 78 140 0.9 4.3 0.00 0.00 0.00 44 1019.6
20260503205326 78 223 1.7 10.4 0.00 0.00 0.00 41 1019.9
20260503204332 78 197 0.9 8.7 0.00 0.00 0.00 42 1020.1
20260503203336 78 82 2.6 7.0 0.00 0.00 0.00 47 1020.2
20260503202402 78 167 1.7 6.1 0.00 0.00 0.00 45 1020.4
20260503201327 78 133 2.6 7.0 0.00 0.00 0.00 43 1020.5
20260503200331 78 141 1.7 7.0 0.00 0.00 0.00 43 1020.7
20260503195403 78 140 2.6 7.0 0.00 0.00 0.00 46 1020.9
20260503194329 78 203 0.9 2.6 0.00 0.00 0.00 44 1021.0
20260503193351 77 119 0.9 3.5 0.00 0.00 0.00 43 1021.2
20260503192356 77 190 0.9 7.8 0.00 0.00 0.00 45 1021.3
20260503191341 78 201 1.7 6.1 0.00 0.00 0.00 45 1021.5
20260503190326 78 155 1.7 4.3 0.00 0.00 0.00 46 1021.6
20260503185352 77 130 1.7 6.1 0.00 0.00 0.00 46 1021.9
20260503184338 77 78 2.6 4.3 0.00 0.00 0.00 49 1021.9
20260503183342 77 196 0.9 6.1 0.00 0.00 0.00 44 1022.1
20260503182332 77 135 3.5 6.1 0.00 0.00 0.00 49 1022.2
20260503181359 77 142 1.7 7.0 0.00 0.00 0.00 46 1022.4
20260503180343 77 129 1.7 5.2 0.00 0.00 0.00 45 1022.5
20260503175330 76 132 0.9 7.0 0.00 0.00 0.00 47 1022.7
20260503174337 77 174 1.7 4.3 0.00 0.00 0.00 48 1022.9
20260503173341 76 201 0.9 5.2 0.00 0.00 0.00 48 1023.0
20260503172330 76 174 1.7 5.2 0.00 0.00 0.00 47 1023.2
20260503171339 76 177 0.9 3.5 0.00 0.00 0.00 48 1023.3
20260503170342 76 213 0.9 5.2 0.00 0.00 0.00 51 1023.4
20260503150335 72 148 0.0 3.5 0.00 0.00 0.00 58 1023.4
20260503131340 59 277 0.0 0.0 0.00 0.00 0.00 94 1022.7
20260503130327 58 327 0.0 0.0 0.00 0.00 0.00 94 1022.6
20260503110326 55 327 0.0 0.0 0.00 0.00 0.00 93 1022.0
20260503090334 57 327 0.0 0.9 0.00 0.00 0.00 93 1021.3
20260503081339 57 327 0.0 0.9 0.00 0.00 0.00 93 1021.4
20260503080324 57 325 0.0 1.7 0.00 0.00 0.00 93 1021.5
20260503072323 58 319 0.0 0.0 0.00 0.00 0.00 92 1021.6
20260503071330 58 319 0.0 0.0 0.00 0.00 0.00 92 1021.5
20260503070358 58 319 0.0 0.0 0.00 0.00 0.00 92 1021.6
20260503060326 59 319 0.0 0.0 0.00 0.00 0.00 91 1021.5
20260503054342 60 319 0.0 0.0 0.00 0.00 0.00 91 1021.6
20260503053329 59 319 0.0 0.0 0.00 0.00 0.00 91 1021.4
20260503052338 60 319 0.0 0.0 0.00 0.00 0.00 91 1021.5
20260503051326 60 319 0.0 0.0 0.00 0.00 0.00 91 1021.4
20260503050333 60 319 0.0 0.0 0.00 0.00 0.00 91 1021.3
20260503045341 60 319 0.0 0.0 0.00 0.00 0.00 91 1021.3
20260503044329 61 319 0.0 0.0 0.00 0.00 0.00 91 1021.3
20260503043337 61 319 0.0 0.0 0.00 0.00 0.00 90 1021.1
20260503042349 61 319 0.0 0.0 0.00 0.00 0.00 90 1021.2
20260503041333 61 319 0.0 0.0 0.00 0.00 0.00 90 1021.2
20260503040341 61 319 0.0 0.0 0.00 0.00 0.00 89 1021.0
20260503035329 61 319 0.0 0.0 0.00 0.00 0.00 89 1021.1
20260503034335 62 319 0.0 0.0 0.00 0.00 0.00 89 1021.2
20260503033341 62 319 0.0 0.0 0.00 0.00 0.00 89 1021.0
20260503032350 62 319 0.0 0.0 0.00 0.00 0.00 89 1020.8
20260503031336 62 319 0.0 0.0 0.00 0.00 0.00 88 1020.6
20260503030324 62 319 0.0 0.0 0.00 0.00 0.00 87 1020.6
20260503025332 63 319 0.0 0.0 0.00 0.00 0.00 86 1020.5
20260503024324 63 319 0.0 0.0 0.00 0.00 0.00 86 1020.4
20260503023331 63 319 0.0 0.0 0.00 0.00 0.00 85 1020.5
20260503022334 63 319 0.0 0.0 0.00 0.00 0.00 84 1020.4
20260503021401 64 319 0.0 0.0 0.00 0.00 0.00 83 1020.2
20260503020403 65 319 0.0 0.0 0.00 0.00 0.00 82 1020.1
20260503015328 66 319 0.0 0.0 0.00 0.04 0.00 80 1019.9
20260503014334 67 319 0.0 0.0 0.00 0.04 0.00 76 1019.9
20260503013358 68 319 0.0 0.0 0.00 0.04 0.00 74 1019.8
20260503012403 70 319 0.0 0.0 0.00 0.04 0.00 70 1019.8
20260503011326 71 319 0.0 0.0 0.00 0.04 0.00 64 1019.6
20260503010333 72 319 0.0 0.0 0.00 0.04 0.00 60 1019.4
20260503005357 73 319 0.0 0.0 0.00 0.18 0.00 59 1019.3
20260503004324 74 319 0.0 0.0 0.00 0.18 0.00 55 1019.3
20260503003328 76 318 0.0 1.7 0.00 0.18 0.00 53 1019.1
20260503002332 77 324 0.9 3.5 0.00 0.18 0.00 50 1019.1
20260503000336 79 340 0.9 7.0 0.00 0.18 0.00 47 1018.9
20260502235325 80 335 2.6 8.7 0.00 0.43 0.00 46 1018.9
20260502234327 79 350 1.7 9.6 0.00 0.43 0.00 48 1018.8
20260502233330 78 350 2.6 7.8 0.00 0.43 0.00 46 1018.8
20260502232335 77 306 2.6 8.7 0.00 0.43 0.00 49 1018.8
20260502231359 76 40 1.7 8.7 0.00 0.43 0.00 49 1018.9
20260502230337 76 340 2.6 8.7 0.00 0.43 0.00 52 1018.7
20260502225341 76 345 2.6 8.7 0.00 0.52 0.00 50 1018.7
20260502224325 76 334 4.3 11.3 0.00 0.52 0.00 49 1018.5
20260502223331 76 51 3.5 10.4 0.00 0.52 0.00 50 1018.2